#timestamp,LO_Frequency,Hit,StdDev 
1514793615.8,286046994.1,N
1514793635.7,286046991.6,Y
1514793655.5,286046997.3,P
1514793675.3,286047002.1,N
1514793695.2,286047001.4,N
1514793715.9,286047000.1,N
1514793735.7,286047002.4,N
1514793755.6,286047004.2,N
1514793775.4,286046998.8,N
1514793795.2,286046996.7,N
1514793815.0,286047001.3,N
1514793816.0,286047001.3,N
1514793835.8,286047000.3,N
1514793855.6,286047000.7,N
1514793875.4,286047004.3,N
1514793895.3,286047001.3,N
1514793915.1,286047001.4,N
1514793935.8,286047004.3,N
1514793955.7,286047005.4,N
1514793975.5,286047003.8,N
1514793995.3,286047000.8,N
1514794015.2,286047001.8,N
1514794035.9,286047005.7,N
1514794055.7,286047004.6,N
1514794075.6,286047005.2,N
1514794095.4,286047006.6,N
1514794115.2,286047007.8,N
1514794135.0,286047008.3,N
1514794136.0,286047008.3,N
1514794155.8,286047006.7,N
1514794175.6,286047005.7,N
1514794195.4,286047004.1,N
1514794215.3,286047007.0,N
1514794235.1,286047010.6,Y
1514794255.8,286047007.5,P
1514794275.7,286047006.9,P
1514794295.5,286047007.6,P
1514794315.3,286047007.0,Y
1514794335.2,286047004.3,P
1514794355.0,286047002.8,N
1514794355.9,286047002.8,N
1514794375.7,286047000.6,N
1514794395.6,286047002.9,N
1514794415.4,286047001.3,N
1514794435.2,286046998.1,N
1514794455.1,286047002.8,N
1514794456.0,286047002.8,N
1514794475.8,286047000.0,N
1514794495.6,286047000.7,N
1514794515.5,286047002.6,N
1514794535.3,286047002.6,N
1514794555.1,286046998.1,N
1514794575.9,286047000.8,N
1514794595.7,286047000.8,N
1514794615.5,286047007.1,Y
1514794635.4,286047004.8,P
1514794655.2,286047003.6,N
1514794675.0,286047001.6,N
1514794675.9,286047001.6,N
1514794695.8,286047004.7,Y
1514794715.6,286047003.1,P
1514794735.4,286047000.1,N
1514794755.3,286046996.8,N
1514794775.1,286046998.9,N
1514794776.0,286046998.9,N
1514794795.8,286047000.5,N
1514794815.7,286047002.3,N
1514794835.5,286047002.7,N
1514794855.3,286047005.8,N
1514794875.1,286047006.6,N
1514794895.9,286047007.4,N
1514794915.7,286047005.7,N
1514794935.5,286047004.3,N
1514794955.4,286047001.9,N
1514794975.2,286047005.8,N
1514794995.0,286047005.1,N
1514794995.9,286047005.1,N
1514795015.8,286047006.1,N
1514795035.6,286047006.3,N
1514795055.4,286047007.1,N
1514795075.3,286047004.5,N
1514795095.1,286047007.0,N
1514795096.0,286047007.0,N
1514795115.8,286047004.2,N
1514795135.7,286047003.0,N
1514795155.5,286046998.7,N
1514795175.3,286046997.3,N
1514795195.1,286047001.1,N
1514795215.9,286046998.8,N
1514795235.7,286047002.6,N
1514795255.5,286046998.1,N
1514795275.4,286047002.6,N
1514795295.2,286047002.5,N
1514795315.0,286047002.2,N
1514795315.9,286047002.2,N
1514795335.8,286047003.6,N
1514795355.6,286046998.6,N
1514795375.4,286046998.2,N
1514795395.3,286046997.4,N
1514795415.1,286046995.2,N
1514795416.0,286046995.2,N
1514795435.8,286046995.5,N
1514795455.7,286046997.7,N
1514795475.5,286046999.2,N
1514795495.3,286046999.5,N
1514795515.2,286046998.6,N
1514795535.9,286046999.9,N
1514795555.7,286047004.8,N
1514795575.5,286047005.2,N
1514795595.4,286047001.4,N
1514795615.2,286047000.0,N
1514795635.0,286047000.0,N
1514795635.9,286047000.0,N
1514795655.8,286047003.2,N
1514795675.6,286047004.1,N
1514795695.4,286047003.4,N
1514795715.3,286047005.2,N
1514795735.1,286047007.1,N
1514795736.0,286047007.1,N
1514795755.8,286047007.0,N
1514795775.7,286047005.1,N
1514795795.5,286047002.6,N
1514795815.3,286047003.4,N
1514795835.2,286047001.3,N
1514795855.9,286047004.3,N
1514795875.7,286047006.9,N
1514795895.5,286047004.7,N
1514795915.4,286047008.7,N
1514795935.2,286047007.5,N
1514795955.0,286047007.6,N
1514795955.9,286047007.6,N
1514795975.8,286047013.3,Y
1514795995.6,286047011.2,P
1514796015.4,286047008.5,N
1514796035.3,286047009.5,N
1514796055.1,286047009.7,Y
1514796075.8,286047006.0,P
1514796095.7,286047006.9,P
1514796115.5,286047010.7,P
1514796135.4,286047006.0,Y
1514796155.2,286046995.9,P
1514796175.0,286046995.8,N
1514796175.9,286046995.8,N
1514796195.7,286046996.7,N
1514796215.6,286046999.9,N
1514796235.4,286047000.2,N
1514796255.2,286047001.6,N
1514796275.1,286047003.1,N
1514796276.0,286047003.1,N
1514796295.8,286047004.1,N
1514796315.6,286047000.0,N
1514796335.5,286047002.7,N
1514796355.3,286046996.5,N
1514796375.1,286046999.3,N
1514796395.9,286046996.5,N
1514796415.7,286046999.3,N
1514796435.5,286046999.4,N
1514796455.4,286046998.9,N
1514796475.2,286046995.5,N
1514796495.0,286046995.4,N
1514796495.9,286046995.4,N
1514796515.7,286046993.8,N
1514796535.6,286046992.2,N
1514796555.4,286046990.6,N
1514796575.2,286046992.1,N
1514796595.1,286046993.6,N
1514796596.0,286046993.6,N
1514796615.8,286046997.9,N
1514796635.6,286046999.0,N
1514796655.5,286046995.4,N
1514796675.3,286046995.9,N
1514796695.1,286046991.9,N
1514796715.9,286046992.7,N
1514796735.7,286046994.1,N
1514796755.5,286046996.3,N
1514796775.3,286046995.7,N
1514796795.2,286046993.9,N
1514796815.0,286046997.7,N
1514796815.9,286046997.7,N
1514796835.7,286046994.9,N
1514796855.6,286046994.8,N
1514796875.4,286046990.5,Y
1514796895.2,286046997.5,P
1514796915.1,286046996.8,P
1514796916.0,286046996.8,P
1514796935.8,286046999.0,N
1514796955.6,286046999.6,N
1514796975.5,286046999.6,N
1514796995.3,286046998.3,N
1514797015.1,286046995.4,Y
1514797035.9,286046999.5,P
1514797055.7,286047000.4,N
1514797075.5,286047000.0,N
1514797095.4,286047001.8,N
1514797115.2,286047002.6,N
1514797135.0,286047003.2,N
1514797135.9,286047003.2,N
1514797155.8,286047003.8,N
1514797175.6,286047001.8,N
1514797195.4,286046999.7,N
